Regional Weather Roundup
Issued by NWS

Home | Current Version | Previous Version | Text Only | Print | Product List | Glossary On
Versions: 1 2 3 4 5 6 7 8 9 10 11 12 13 14 15 16 17 18 19 20 21 22 23 24 25 26 27 28 29 30 31 32 33 34 35 36 37 38 39 40 41 42 43 44 45 46 47 48 49 50
690
ASUS43 KMPX 230101
RWRMN
WEATHER ROUNDUP FOR MINNESOTA
NATIONAL WEATHER SERVICE TWIN CITIES/CHANHASSEN MN
700 PM CST MON JAN 22 2018


NOTE: "FAIR" INDICATES FEW OR NO CLOUDS BELOW 12,000 FEET WITH NO
SIGNIFICANT WEATHER AND/OR OBSTRUCTIONS TO VISIBILITY. N/A MEANS
CURRENT SKY AND/OR WEATHER CONDITIONS ARE NOT AVAILABLE.

MNZ060>063-068>070-230200-
   Twin Cities Metro

CITY           SKY/WX    TMP DP  RH WIND       PRES   REMARKS
TWIN CITIES    LGT SNOW  26  26 100 N17G26    29.74R BLWGSNOWWCI  13
ST PAUL        LGT SNOW  27  24  89 N15G23    29.75R FOG     WCI  15
CRYSTAL        LGT SNOW  27  22  81 N18G29    29.74R VSB 1   WCI  14
BLAINE         SNOW      28  27  93 N20G29    29.75R VSB 1/2 WCI  15
LAKEVILLE      CLOUDY    25  25 100 N16G25    29.71R WCI  12
EDEN PRAIRIE   SNOW      28  24  85 N17G28    29.72R VSB 1/2 WCI  16
SOUTH ST PAUL  LGT SNOW  28  26  92 N16       29.72S WCI  15
LAKE ELMO        N/A     28  27  93 N14G23    29.72S WCI  17
$$
MNZ001>005-007-008-013>017-022>024-027-028-230200-
   Northwest Minnesota

CITY           SKY/WX    TMP DP  RH WIND       PRES   REMARKS
BEMIDJI        CLOUDY    23  19  86 NE12      29.98S WCI  11
HALLOCK        CLOUDY    25  18  74 E6        30.09S WCI  18
ROSEAU         CLOUDY    21  18  86 E13       30.08S WCI   9
WARROAD        CLOUDY    19  16  86 N10       30.08S WCI   8
CROOKSTON      CLOUDY    25  19  80 N7        30.07S WCI  17
FOSSTON        CLOUDY    21  19  93 NE8       30.02R WCI  12
DETROIT LAKES  CLOUDY    27  21  80 N8        29.98S WCI  18
MOORHEAD       CLOUDY    25  19  80 N12       30.03S WCI  14
PARK RAPIDS    CLOUDY    24  17  74 NE13G22   29.94S WCI  12
MAHNOMEN       CLOUDY    24  20  84 NE13      30.00R WCI  12
$$
MNZ006-009>011-018-025>026-230200-
   North Central Minnesota

CITY           SKY/WX    TMP DP  RH WIND       PRES   REMARKS
BAUDETTE       CLOUDY    20  15  81 N10       30.04S WCI   9
FLAG ISLAND    CLOUDY    18  14  86 N9        30.08F WCI   6
INTL FALLS     CLOUDY    17  12  80 N8        30.03R WCI   7
WASKISH        CLOUDY    21  19  93 N6        30.02S WCI  14
BIG FORK       CLOUDY    21  18  86 N8        29.97S WCI  12
LONGVILLE      CLOUDY    25  18  74 N8        29.94R WCI  16
GRAND RAPIDS   CLOUDY    23  17  78 N9        29.95R WCI  13
CRANE LAKE     CLOUDY    16  12  86 N8        30.01F WCI   5
ORR            CLOUDY    18  12  79 CALM      29.94F
COOK           CLOUDY    19  16  86 N7        29.95S WCI  10
WALKER         CLOUDY    23  17  77 N12G17    29.96S WCI  11
$$
MNZ012-019>021-037-230200-
   Northeast Minnesota

CITY           SKY/WX    TMP DP  RH WIND       PRES   REMARKS
DULUTH         CLOUDY    22  18  85 N14       29.86S WCI   9
HIBBING        MOCLDY    19  14  81 N8        29.92R WCI   9
EVELETH        FAIR      20  14  76 N6        29.93R WCI  12
DULUTH HARBOR  CLOUDY    28  25  86 N21       29.90F WCI  15
TWO HARBORS    CLOUDY    27  21  80 N6        29.87S WCI  20
SILVER BAY     CLOUDY    23  18  80 VRB7      29.87S WCI  15
GRAND MARAIS     N/A     21  10  62 N17G29    29.89R WCI   7
G MARAIS ARPRT FAIR      10   3  72 N9        29.86R WCI  -2
$$
MNZ029>031-032-039>041-046>048-054>057-064-230200-
   West Central Minnesota

CITY           SKY/WX    TMP DP  RH WIND       PRES   REMARKS
FERGUS FALLS   CLOUDY    27  21  80 NE10G16   29.96S WCI  17
WHEATON        CLOUDY    27  21  80 N13       29.99S WCI  16
MORRIS         CLOUDY    28  21  74 N18       29.92R WCI  16
ALEXANDRIA     CLOUDY    26  21  81 N18       29.90R WCI  13
ELBOW LAKE     CLOUDY    26  22  82 N14       29.95R WCI  15
WADENA         CLOUDY    23  18  80 N15       29.94R WCI  10
GLENWOOD       FAIR      27  21  80 N16G23    29.89R WCI  14
APPLETON       CLOUDY    30  21  69 N16G24    29.92R WCI  19
BENSON         CLOUDY    30  21  69 NE17G24   29.91S WCI  18
ORTONVILLE     CLOUDY    27  21  80 N16       29.94R WCI  14
MADISON        CLOUDY    30  25  80 N17G24    29.92R WCI  18
WILLMAR        CLOUDY    30  25  80 N18       29.87R WCI  18
$$
MNZ033>034-036-042>043-049>051-058-059-230200-
   Central Minnesota

CITY           SKY/WX    TMP DP  RH WIND       PRES   REMARKS
ST CLOUD       CLOUDY    28  22  78 N14G25    29.83R WCI  17
SAUK CENTRE      N/A     28  22  80 N12G18    29.87R WCI  17
PAYNESVILLE    CLOUDY    30  25  82 N13G21    29.85R WCI  20
AITKIN         CLOUDY    25  19  80 N13G20    29.88S WCI  13
PINE RIVER     CLOUDY    23  18  80 N15G22    29.95S WCI  10
BRAINERD       CLOUDY    27  20  75 N16G22    29.90R WCI  15
STAPLES        CLOUDY    25  19  80 N14       29.91S WCI  13
LONG PRAIRIE   CLOUDY    27  21  80 NW13G21   29.88S WCI  16
LITTLE FALLS   CLOUDY    28  18  64 N9        29.88  WCI  20
LITCHFIELD     CLOUDY    30  25  80 N15G26    29.82R WCI  19
BUFFALO        CLOUDY    28  23  84 N17G28    29.79S WCI  15
MAPLE LAKE     CLOUDY    29  25  84 MISG      29.81R
HUTCHINSON     CLOUDY    30  26  84 N22G31    29.78R WCI  17
$$
MNZ037-044-045-052-053-230200-
   East Central Minnesota

CITY           SKY/WX    TMP DP  RH WIND       PRES   REMARKS
PRINCETON      CLOUDY    28  23  80 N15G23    29.82R WCI  17
MORA           CLOUDY    27  21  80 NE7G17    29.84S WCI  19
CAMBRIDGE      FLURRIES  28  21  74 N12G24    29.81R WCI  18
RUSH CITY      LGT SNOW  27  24  88 N15G23    29.80S WCI  15
MOOSE LAKE     CLOUDY    27  19  74 N16G23    29.84F WCI  14
HINCKLEY       CLOUDY    28  23  80 N17G25    29.82S WCI  16
CLOQUET        CLOUDY    23  18  80 N13G18    29.86F WCI  11
MCGREGOR       CLOUDY    27  21  80 N13G21    29.89S WCI  16
$$
MNZ071>073-080-081-089-090-097-098-230200-
   Southwest Minnesota

CITY           SKY/WX    TMP DP  RH WIND       PRES   REMARKS
MONTEVIDEO     CLOUDY    28  25  86 N21       29.88S WCI  15
GRANITE FALLS  CLOUDY    32  26  77 NW20G29   29.87R WCI  20
CANBY          CLOUDY    29  25  82 N15G24    29.92R WCI  18
MARSHALL       CLOUDY    28  24  85 N21G31    29.85R WCI  15
REDWOOD FALLS  CLOUDY    30  25  81 N17G26    29.80R WCI  18
OLIVIA         CLOUDY    32  27  80 N21G26    29.82R WCI  20
PIPESTONE      CLOUDY    27  23  86 N21G29    29.82R WCI  13
WINDOM         LGT SNOW  28  16  59 N26       29.75R WCI  13
WORTHINGTON    LGT SNOW  27  25  92 N32G39    29.75R FOG     WCI  10
JACKSON        CLOUDY    28  27  93 N18G25    29.73R VSB 3/4 WCI  16
TRACY          CLOUDY    29  26  88 N21G29    29.82R WCI  16
SLAYTON        CLOUDY    26  24  92 N28G36    29.80R WCI  11
$$
MNZ065>067-074>077-082>085-091>093-230200-
   South Central Minnesota

CITY           SKY/WX    TMP DP  RH WIND       PRES   REMARKS
MANKATO        LGT SNOW  27  25  92 N24       29.72R FOG     WCI  12
NEW ULM        CLOUDY    27  25  93 N14G21    29.75R WCI  15
ST JAMES         N/A     27  27 100 N22       29.75R WCI  12
FAIRMONT       MIX PCPN  27  26  96 N29       29.70R FOG     WCI  11
FARIBAULT      LGT SNOW  27  25  93 N15G23    29.69R WCI  15
OWATONNA         N/A     28  25  86 N22G29    29.66R WCI  15
WASECA         CLOUDY    28  25  86 N21       29.68R WCI  15
ALBERT LEA     LGT SNOW  28  27  93 N18G25    29.61R WCI  16
$$
MNZ078>079-086>088-094>096-230200-
   Southeast Minnesota

CITY           SKY/WX    TMP DP  RH WIND       PRES   REMARKS
ROCHESTER      FLURRIES  29  28  96 N26G36    29.58R WCI  14
RED WING       CLOUDY    30  25  80 NE17      29.66R HAZE    WCI  18
STANTON        LGT SNOW  29  26  88 N18G28    29.68R WCI  16
DODGE CENTER   MIX PCPN  28  27  93 N17G23    29.61R WCI  16
WINONA         FLURRIES  34  32  93 N5        29.59R WCI  30
PRESTON        CLOUDY    31  29  94 N10G16    29.55R WCI  22
$$
ABBREVIATIONS USED IN REMARKS
   TC - TEMPERATURES IN CELSIUS
  WCI - WIND CHILL INDEX
   HX - HEAT INDEX
  VSB - VISIBILITY
$$




USA.gov is the U.S. government's official web portal to all federal, state and local government web resources and services.